Location: Stockholm
(59.3293°N, 18.0686°E)
Time: 16:44:58
(UTC+02:00)

ISS - Pass Details

Date: 24 March 2019
Orbit: 408 x 410 km, 51.6° (Epoch: 25 April)

Event Time Altitude Azimuth Distance (km) Brightness Sun altitude
Rises 19:29:26 0° 210° (SSW) 2,331 0.1 -10.6°
Reaches altitude 10° 19:32:30 10° 179° (S) 1,472 -1.2 -10.9°
Maximum altitude 19:33:54 12° 154° (SSE) 1,346 -1.6 -11.1°
Enters shadow 19:34:02 12° 151° (SSE) 1,347 -1.7 -11.1°
